When you browse on this site, cookies collect data to enhance your experience and personalize the content and advertising you see.
Visit our Privacy Policy to learn more. By continuing to use the site, you agree to this use of cookies and data.
  • In Portugal
  • List of Countries
  • For 7 days
  • Water Temperature
  • Satellite Maps
  • Weather Map
  • Weather Widgets
  • user-avatar
    Login

    Hourly Weather Magdalenowo

    Today, 25 May, Saturday

    Time Temperature Precipitation Wind Pressure Humidity
    00:00 +12°C° 0 mm 2 mps 745 mmHg 82%
    01:00 +10°C° 0 mm 2 mps 745 mmHg 81%
    02:00 +11°C° 0 mm 1 mps 745 mmHg 79%
    03:00 +11°C° 0 mm 1 mps 745 mmHg 79%
    04:00 +10°C° 0 mm 1 mps 745 mmHg 79%
    05:00 +10°C° 0 mm 1 mps 744 mmHg 78%
    06:00 +12°C° 0 mm 2 mps 744 mmHg 76%
    07:00 +14°C° 0 mm 2 mps 745 mmHg 73%
    08:00 +16°C° 0 mm 3 mps 745 mmHg 70%
    09:00 +18°C° 0 mm 4 mps 745 mmHg 65%
    10:00 +19°C° 0 mm 4 mps 745 mmHg 61%
    11:00 +21°C° 0 mm 5 mps 745 mmHg 56%
    12:00 +20°C° 0.3 mm 5 mps 744 mmHg 59%
    13:00 +20°C° 0.3 mm 5 mps 744 mmHg 61%
    14:00 +20°C° 0.3 mm 6 mps 744 mmHg 63%
    15:00 +19°C° 0 mm 6 mps 744 mmHg 65%
    16:00 +17°C° 0 mm 6 mps 744 mmHg 67%
    17:00 +17°C° 0 mm 6 mps 744 mmHg 68%
    18:00 +15°C° 0 mm 5 mps 744 mmHg 72%
    19:00 +14°C° 0 mm 4 mps 744 mmHg 77%
    20:00 +12°C° 0 mm 3 mps 744 mmHg 81%
    21:00 +12°C° 0 mm 2 mps 745 mmHg 85%
    22:00 +9°C° 0 mm 2 mps 745 mmHg 89%
    23:00 +8°C° 0 mm 2 mps 745 mmHg 93%

    Tomorrow, 26 May, Sunday

    Time Temperature Precipitation Wind Pressure Humidity
    00:00 +8°C° 0 mm 2 mps 745 mmHg 94%
    01:00 +7°C° 0 mm 2 mps 745 mmHg 95%
    02:00 +7°C° 0 mm 2 mps 745 mmHg 96%
    03:00 +7°C° 0 mm 2 mps 745 mmHg 95%
    04:00 +7°C° 0 mm 2 mps 745 mmHg 95%
    05:00 +7°C° 0 mm 2 mps 745 mmHg 95%
    06:00 +8°C° 0 mm 3 mps 745 mmHg 89%
    07:00 +10°C° 0 mm 4 mps 745 mmHg 83%
    08:00 +12°C° 0 mm 4 mps 745 mmHg 77%
    09:00 +14°C° 0 mm 5 mps 745 mmHg 73%
    10:00 +15°C° 0 mm 5 mps 745 mmHg 69%
    11:00 +16°C° 0 mm 5 mps 745 mmHg 64%
    12:00 +16°C° 0.1 mm 5 mps 744 mmHg 65%
    13:00 +16°C° 0.1 mm 5 mps 744 mmHg 65%
    14:00 +16°C° 0.1 mm 5 mps 744 mmHg 65%
    15:00 +16°C° 0.2 mm 5 mps 744 mmHg 68%
    16:00 +16°C° 0.2 mm 5 mps 744 mmHg 70%
    17:00 +16°C° 0.2 mm 5 mps 744 mmHg 72%
    18:00 +15°C° 0.2 mm 5 mps 744 mmHg 77%
    19:00 +14°C° 0.2 mm 4 mps 744 mmHg 82%
    20:00 +13°C° 0.2 mm 3 mps 744 mmHg 87%
    21:00 +12°C° 0 mm 3 mps 744 mmHg 88%
    22:00 +12°C° 0 mm 3 mps 744 mmHg 90%
    23:00 +11°C° 0 mm 3 mps 744 mmHg 91%

    Day after tomorrow, 27 May, Monday

    Time Temperature Precipitation Wind Pressure Humidity
    00:00 +12°C° 0.1 mm 3 mps 744 mmHg 90%
    01:00 +12°C° 0.1 mm 3 mps 744 mmHg 89%
    02:00 +12°C° 0.1 mm 4 mps 743 mmHg 88%
    03:00 +12°C° 0 mm 3 mps 743 mmHg 90%
    04:00 +12°C° 0 mm 3 mps 743 mmHg 91%
    05:00 +12°C° 0 mm 3 mps 743 mmHg 92%
    06:00 +12°C° 0 mm 4 mps 743 mmHg 90%
    07:00 +13°C° 0 mm 4 mps 743 mmHg 88%
    08:00 +14°C° 0 mm 4 mps 743 mmHg 86%
    09:00 +16°C° 0.1 mm 5 mps 743 mmHg 80%
    10:00 +17°C° 0.1 mm 6 mps 743 mmHg 75%
    11:00 +20°C° 0.1 mm 7 mps 743 mmHg 69%
    12:00 +21°C° 0.3 mm 7 mps 743 mmHg 68%
    13:00 +21°C° 0.3 mm 7 mps 743 mmHg 67%
    14:00 +22°C° 0.3 mm 7 mps 743 mmHg 66%
    15:00 +22°C° 0.5 mm 6 mps 743 mmHg 68%
    16:00 +21°C° 0.5 mm 5 mps 743 mmHg 71%
    17:00 +21°C° 0.5 mm 4 mps 742 mmHg 73%
    18:00 +20°C° 0.6 mm 4 mps 742 mmHg 78%
    19:00 +19°C° 0.6 mm 3 mps 742 mmHg 84%
    20:00 +18°C° 0.6 mm 2 mps 742 mmHg 89%
    21:00 +17°C° 0.2 mm 2 mps 742 mmHg 91%
    22:00 +16°C° 0.2 mm 2 mps 743 mmHg 92%
    23:00 +15°C° 0.2 mm 2 mps 743 mmHg 94%

    28 May, Tuesday

    Time Temperature Precipitation Wind Pressure Humidity
    00:00 +15°C° 0 mm 2 mps 743 mmHg 95%
    01:00 +15°C° 0 mm 2 mps 743 mmHg 96%
    02:00 +14°C° 0 mm 2 mps 743 mmHg 97%
    03:00 +14°C° 0 mm 2 mps 743 mmHg 96%
    04:00 +13°C° 0 mm 2 mps 744 mmHg 96%
    05:00 +13°C° 0 mm 1 mps 744 mmHg 95%
    06:00 +14°C° 0 mm 1 mps 744 mmHg 91%
    07:00 +14°C° 0 mm 1 mps 744 mmHg 87%
    08:00 +15°C° 0 mm 1 mps 744 mmHg 82%
    09:00 +15°C° 0.4 mm 2 mps 744 mmHg 83%
    10:00 +16°C° 0.4 mm 2 mps 744 mmHg 84%
    11:00 +16°C° 0.4 mm 2 mps 744 mmHg 85%
    12:00 +16°C° 0.7 mm 2 mps 744 mmHg 87%
    13:00 +16°C° 0.7 mm 2 mps 744 mmHg 89%
    14:00 +14°C° 0.7 mm 3 mps 744 mmHg 91%
    15:00 +14°C° 0.1 mm 3 mps 743 mmHg 91%
    16:00 +14°C° 0.1 mm 3 mps 743 mmHg 91%
    17:00 +14°C° 0.1 mm 3 mps 743 mmHg 91%
    18:00 +14°C° 0 mm 3 mps 743 mmHg 91%
    19:00 +14°C° 0 mm 3 mps 743 mmHg 91%
    20:00 +13°C° 0 mm 3 mps 743 mmHg 91%
    21:00 +13°C° 1.1 mm 3 mps 743 mmHg 92%
    22:00 +13°C° 1.1 mm 3 mps 743 mmHg 94%
    23:00 +12°C° 1.1 mm 4 mps 743 mmHg 95%

    29 May, Wednesday

    Time Temperature Precipitation Wind Pressure Humidity
    00:00 +12°C° 0.6 mm 4 mps 743 mmHg 96%
    01:00 +12°C° 0.6 mm 4 mps 743 mmHg 96%
    02:00 +12°C° 0.6 mm 4 mps 743 mmHg 96%
    03:00 +12°C° 1 mm 4 mps 743 mmHg 96%
    04:00 +12°C° 1 mm 5 mps 743 mmHg 96%
    05:00 +12°C° 1 mm 5 mps 743 mmHg 96%
    06:00 +10°C° 0.2 mm 5 mps 743 mmHg 95%
    07:00 +10°C° 0.2 mm 5 mps 744 mmHg 94%
    08:00 +9°C° 0.2 mm 5 mps 744 mmHg 94%
    09:00 +10°C° 0.1 mm 5 mps 745 mmHg 91%
    10:00 +10°C° 0.1 mm 6 mps 745 mmHg 89%
    11:00 +10°C° 0.1 mm 6 mps 746 mmHg 86%
    12:00 +12°C° 0 mm 5 mps 747 mmHg 83%
    13:00 +12°C° 0 mm 4 mps 747 mmHg 81%
    14:00 +13°C° 0 mm 4 mps 748 mmHg 78%
    15:00 +13°C° 0 mm 5 mps 748 mmHg 73%
    16:00 +14°C° 0 mm 5 mps 749 mmHg 68%
    17:00 +14°C° 0 mm 6 mps 749 mmHg 64%
    18:00 +13°C° 0 mm 5 mps 750 mmHg 67%
    19:00 +10°C° 0 mm 5 mps 750 mmHg 70%
    20:00 +8°C° 0 mm 4 mps 751 mmHg 73%
    21:00 +7°C° 0 mm 4 mps 751 mmHg 76%
    22:00 +7°C° 0 mm 3 mps 752 mmHg 78%
    23:00 +4°C° 0 mm 3 mps 753 mmHg 80%

    30 May, Thursday

    Time Temperature Precipitation Wind Pressure Humidity
    00:00 +4°C° 0 mm 3 mps 753 mmHg 82%
    01:00 +3°C° 0 mm 3 mps 753 mmHg 85%
    02:00 +3°C° 0 mm 3 mps 754 mmHg 87%
    03:00 +4°C° 0 mm 2 mps 754 mmHg 88%
    04:00 +4°C° 0 mm 2 mps 754 mmHg 89%
    05:00 +4°C° 0 mm 2 mps 755 mmHg 90%
    06:00 +7°C° 0 mm 2 mps 755 mmHg 84%
    07:00 +9°C° 0 mm 2 mps 755 mmHg 77%
    08:00 +13°C° 0 mm 2 mps 755 mmHg 71%
    09:00 +14°C° 0 mm 2 mps 755 mmHg 63%
    10:00 +16°C° 0 mm 2 mps 755 mmHg 55%
    11:00 +17°C° 0 mm 2 mps 755 mmHg 47%
    12:00 +18°C° 0 mm 2 mps 755 mmHg 45%
    13:00 +18°C° 0 mm 2 mps 754 mmHg 44%
    14:00 +19°C° 0 mm 2 mps 754 mmHg 42%
    15:00 +19°C° 0 mm 2 mps 754 mmHg 43%
    16:00 +19°C° 0 mm 2 mps 753 mmHg 45%
    17:00 +19°C° 0 mm 2 mps 753 mmHg 46%
    18:00 +17°C° 0 mm 2 mps 753 mmHg 54%
    19:00 +16°C° 0 mm 2 mps 752 mmHg 61%
    20:00 +14°C° 0 mm 2 mps 752 mmHg 68%
    21:00 +13°C° 0 mm 2 mps 752 mmHg 70%
    22:00 +12°C° 0 mm 2 mps 752 mmHg 71%
    23:00 +9°C° 0 mm 2 mps 752 mmHg 73%
    Show more